This is the latest recevied weather packets stored in our database for station/object K9MWD. If no packets are shown the sender has not sent any weather packets the latest 10 day(s).
| Time | Temp. | Humidity | Pressure | Rain* | Wind** | Luminosity | Snow |
|---|---|---|---|---|---|---|---|
| 1788110069 | 35° C | 41% | 1017.1 hPa | 0 mm | - | 823 W/m² | - |
| 1788109768 | 34.44° C | 42% | 1017.2 hPa | 0 mm | - | 817 W/m² | - |
| 1788109468 | 35.56° C | 40% | 1017.2 hPa | 0 mm | - | 807 W/m² | - |
| 1788109166 | 35° C | 43% | 1017.2 hPa | 0 mm | - | 800 W/m² | - |
| 1788108863 | 35° C | 43% | 1017.4 hPa | 0 mm | - | 791 W/m² | - |
| 1788108559 | 35° C | 43% | 1017.5 hPa | 0 mm | - | 778 W/m² | - |
| 1788108254 | 35° C | 43% | 1017.5 hPa | 0 mm | - | 770 W/m² | - |
| 1788107967 | 35° C | 43% | 1017.3 hPa | 0 mm | - | 761 W/m² | - |
| 1788107647 | 35° C | 43% | 1017.5 hPa | 0 mm | - | 751 W/m² | - |
| 1788107346 | 35° C | 43% | 1017.5 hPa | 0 mm | - | 737 W/m² | - |
| 1788107042 | 34.44° C | 46% | 1017.6 hPa | 0 mm | - | 728 W/m² | - |
| 1788106737 | 34.44° C | 46% | 1017.6 hPa | 0 mm | - | 718 W/m² | - |
| 1788106436 | 33.89° C | 47% | 1017.4 hPa | 0 mm | - | 702 W/m² | - |
| 1788106132 | 33.33° C | 48% | 1017.4 hPa | 0 mm | - | 691 W/m² | - |
| 1788105827 | 33.33° C | 50% | 1017.4 hPa | 0 mm | - | 679 W/m² | - |
| 1788105523 | 33.33° C | 51% | 1017.4 hPa | 0 mm | - | 665 W/m² | - |
| 1788105219 | 32.78° C | 51% | 1017.4 hPa | 0 mm | - | 652 W/m² | - |
| 1788104919 | 32.78° C | 53% | 1017.5 hPa | 0 mm | - | 637 W/m² | - |
| 1788104615 | 32.78° C | 52% | 1017.5 hPa | 0 mm | - | 624 W/m² | - |
| 1788104312 | 31.67° C | 55% | 1017.3 hPa | 0 mm | - | 604 W/m² | - |
| 1788104007 | 31.67° C | 56% | 1017.4 hPa | 0 mm | - | 592 W/m² | - |
| 1788103705 | 31.67° C | 56% | 1017.4 hPa | 0 mm | - | 577 W/m² | - |
| 1788103401 | 31.67° C | 58% | 1017.3 hPa | 0 mm | - | 560 W/m² | - |
| 1788103101 | 31.67° C | 58% | 1017.5 hPa | 0 mm | - | 546 W/m² | - |
| 1788102800 | 31.11° C | 60% | 1017.5 hPa | 0 mm | - | 528 W/m² | - |
* Rain latest hour (hover to see other rain measurements)
** Current wind speed in m/s (hover to see current wind gust speed)